| time (UTC) | temp F | wind direction | speed MPH | gust MPH | rain 1hr in | rain 24hr in | rain mn in | humidity % | barometer mb |
| 20260906203211 | 81 | 203 | 1.0 | 5.0 | 0.00 | 0.46 | 0.46 | 94 | 1010.0 |
| 20260906202737 | 81 | 127 | 2.0 | 5.0 | 0.00 | 0.46 | 0.46 | 94 | 1010.1 |
| 20260906202240 | 81 | 156 | 1.0 | 9.0 | 0.00 | 0.46 | 0.46 | 94 | 1010.3 |
| 20260906201724 | 81 | 138 | 6.0 | 9.0 | 0.00 | 0.46 | 0.46 | 94 | 1010.5 |
| 20260906201230 | 81 | 70 | 6.0 | 10.0 | 0.00 | 0.46 | 0.46 | 94 | 1010.6 |
| 20260906200716 | 81 | 40 | 4.0 | 8.0 | 0.00 | 0.46 | 0.46 | 94 | 1010.9 |
| 20260906200221 | 82 | 69 | 0.0 | 4.0 | 0.00 | 0.46 | 0.46 | 94 | 1010.9 |
| 20260906195725 | 82 | 69 | 1.0 | 4.0 | 0.00 | 0.46 | 0.46 | 94 | 1010.7 |
| 20260906195230 | 82 | 112 | 2.0 | 3.0 | 0.00 | 0.46 | 0.46 | 94 | 1010.5 |
| 20260906194715 | 82 | 108 | 0.0 | 0.0 | 0.00 | 0.46 | 0.46 | 94 | 1010.8 |
| 20260906194240 | 82 | 140 | 0.0 | 0.0 | 0.00 | 0.46 | 0.46 | 94 | 1011.0 |
| 20260906193728 | 82 | 92 | 0.0 | 0.0 | 0.00 | 0.46 | 0.46 | 94 | 1011.1 |
| 20260906193213 | 82 | 113 | 0.0 | 1.0 | 0.10 | 0.46 | 0.46 | 94 | 1010.7 |
| 20260906192718 | 82 | 268 | 0.0 | 3.0 | 0.26 | 0.46 | 0.46 | 94 | 1010.5 |
| 20260906192243 | 81 | 269 | 2.0 | 3.0 | 0.42 | 0.46 | 0.46 | 94 | 1010.6 |
| 20260906191727 | 82 | 257 | 0.0 | 2.0 | 0.45 | 0.46 | 0.46 | 94 | 1011.0 |
| 20260906191212 | 81 | 190 | 1.0 | 2.0 | 0.45 | 0.46 | 0.46 | 94 | 1011.2 |
| 20260906190717 | 81 | 191 | 1.0 | 2.0 | 0.45 | 0.46 | 0.46 | 94 | 1011.2 |
| 20260906190222 | 80 | 222 | 1.0 | 4.0 | 0.45 | 0.46 | 0.46 | 93 | 1010.8 |
| 20260906185726 | 80 | 224 | 0.0 | 10.0 | 0.45 | 0.70 | 0.46 | 93 | 1010.5 |
| 20260906185230 | 80 | 73 | 5.0 | 12.0 | 0.45 | 0.70 | 0.46 | 92 | 1010.7 |
| 20260906184716 | 80 | 54 | 8.0 | 12.0 | 0.45 | 0.70 | 0.46 | 91 | 1011.0 |
| 20260906184224 | 80 | 118 | 0.0 | 12.0 | 0.45 | 0.70 | 0.46 | 91 | 1011.1 |
| 20260906183750 | 80 | 59 | 4.0 | 29.0 | 0.45 | 0.70 | 0.46 | 88 | 1011.2 |
| 20260906183232 | 82 | 360 | 9.0 | 29.0 | 0.35 | 0.60 | 0.36 | 81 | 1011.7 |
| 20260906182716 | 85 | 300 | 18.0 | 26.0 | 0.17 | 0.42 | 0.18 | 81 | 1011.6 |
| 20260906182220 | 88 | 45 | 6.0 | 9.0 | 0.00 | 0.25 | 0.01 | 78 | 1011.5 |
| 20260906181724 | 89 | 60 | 8.0 | 9.0 | 0.00 | 0.25 | 0.01 | 74 | 1011.2 |
| 20260906181229 | 90 | 42 | 3.0 | 4.0 | 0.00 | 0.25 | 0.01 | 75 | 1011.1 |
| 20260906180722 | 89 | 25 | 2.0 | 4.0 | 0.00 | 0.25 | 0.01 | 74 | 1011.1 |
| 20260906180226 | 90 | 21 | 3.0 | 5.0 | 0.00 | 0.25 | 0.01 | 73 | 1011.1 |
| 20260906175731 | 90 | 312 | 3.0 | 6.0 | 0.00 | 0.31 | 0.01 | 74 | 1011.1 |
| 20260906175216 | 90 | 314 | 2.0 | 4.0 | 0.00 | 0.31 | 0.01 | 74 | 1011.2 |
| 20260906174718 | 89 | 41 | 2.0 | 3.0 | 0.00 | 0.31 | 0.01 | 75 | 1011.3 |
| 20260906174238 | 89 | 56 | 2.0 | 5.0 | 0.00 | 0.31 | 0.01 | 75 | 1011.3 |
| 20260906173222 | 89 | 40 | 3.0 | 4.0 | 0.00 | 0.31 | 0.01 | 75 | 1011.3 |
| 20260906172739 | 89 | 51 | 2.0 | 6.0 | 0.00 | 0.31 | 0.01 | 74 | 1011.4 |
| 20260906172221 | 89 | 294 | 5.0 | 6.0 | 0.00 | 0.31 | 0.01 | 75 | 1011.4 |
| 20260906171725 | 89 | 322 | 3.0 | 6.0 | 0.00 | 0.31 | 0.01 | 75 | 1011.5 |
| 20260906171212 | 89 | 279 | 3.0 | 6.0 | 0.00 | 0.31 | 0.01 | 76 | 1011.6 |
| 20260906170727 | 89 | 284 | 3.0 | 6.0 | 0.00 | 0.31 | 0.01 | 75 | 1011.7 |
| 20260906170231 | 89 | 311 | 2.0 | 6.0 | 0.00 | 0.31 | 0.01 | 76 | 1011.8 |
| 20260906165714 | 88 | 296 | 3.0 | 8.0 | 0.00 | 0.38 | 0.01 | 76 | 1011.8 |
| 20260906165217 | 89 | 289 | 5.0 | 8.0 | 0.00 | 0.38 | 0.01 | 76 | 1011.9 |
| 20260906164737 | 89 | 288 | 2.0 | 7.0 | 0.00 | 0.38 | 0.01 | 75 | 1012.0 |
| 20260906163722 | 89 | 271 | 4.0 | 8.0 | 0.00 | 0.38 | 0.01 | 76 | 1012.1 |
| 20260906163401 | 88 | 336 | 0.0 | 7.0 | 0.00 | 0.38 | 0.01 | 77 | 1012.1 |
| 20260906162750 | 88 | 300 | 4.0 | 8.0 | 0.00 | 0.38 | 0.01 | 76 | 1012.1 |
| 20260906162213 | 88 | 274 | 5.0 | 8.0 | 0.00 | 0.38 | 0.01 | 76 | 1012.1 |
| 20260906161716 | 88 | 268 | 4.0 | 8.0 | 0.00 | 0.38 | 0.01 | 77 | 1012.2 |
| 20260906161239 | 87 | 261 | 3.0 | 10.0 | 0.00 | 0.38 | 0.01 | 77 | 1012.2 |
| 20260906160218 | 87 | 279 | 6.0 | 10.0 | 0.00 | 0.38 | 0.01 | 78 | 1012.3 |
| 20260906155711 | 87 | 269 | 5.0 | 8.0 | 0.00 | 0.38 | 0.01 | 78 | 1012.3 |
| 20260906155213 | 87 | 273 | 4.0 | 11.0 | 0.00 | 0.38 | 0.01 | 80 | 1012.3 |
| 20260906154735 | 87 | 288 | 7.0 | 12.0 | 0.00 | 0.38 | 0.01 | 78 | 1012.2 |
| 20260906154251 | 87 | 286 | 6.0 | 10.0 | 0.00 | 0.38 | 0.01 | 79 | 1012.2 |
| 20260906153714 | 87 | 287 | 6.0 | 12.0 | 0.00 | 0.38 | 0.01 | 79 | 1012.4 |
| 20260906153218 | 86 | 276 | 8.0 | 12.0 | 0.00 | 0.38 | 0.01 | 80 | 1012.4 |
| 20260906152739 | 86 | 266 | 9.0 | 12.0 | 0.00 | 0.38 | 0.01 | 79 | 1012.5 |
| 20260906152221 | 86 | 286 | 5.0 | 10.0 | 0.00 | 0.38 | 0.01 | 80 | 1012.5 |
| 20260906151724 | 86 | 277 | 5.0 | 10.0 | 0.00 | 0.38 | 0.01 | 81 | 1012.6 |
| 20260906151228 | 86 | 282 | 5.0 | 10.0 | 0.00 | 0.38 | 0.01 | 81 | 1012.7 |
| 20260906150730 | 86 | 286 | 8.0 | 11.0 | 0.00 | 0.38 | 0.01 | 81 | 1012.7 |
| 20260906150220 | 86 | 283 | 7.0 | 9.0 | 0.00 | 0.38 | 0.01 | 82 | 1012.8 |
| 20260906145721 | 85 | 285 | 5.0 | 10.0 | 0.00 | 0.38 | 0.01 | 82 | 1012.7 |
| 20260906145224 | 85 | 279 | 7.0 | 10.0 | 0.00 | 0.38 | 0.01 | 82 | 1012.7 |
| 20260906144716 | 85 | 280 | 5.0 | 11.0 | 0.00 | 0.38 | 0.01 | 84 | 1012.7 |
| 20260906144219 | 85 | 275 | 9.0 | 11.0 | 0.00 | 0.38 | 0.01 | 84 | 1012.7 |
| 20260906143721 | 85 | 291 | 6.0 | 10.0 | 0.00 | 0.38 | 0.01 | 83 | 1012.6 |
| 20260906143214 | 85 | 285 | 8.0 | 13.0 | 0.00 | 0.38 | 0.01 | 83 | 1012.7 |
| 20260906142718 | 84 | 276 | 10.0 | 13.0 | 0.00 | 0.38 | 0.01 | 84 | 1012.6 |
| 20260906142240 | 84 | 291 | 7.0 | 8.0 | 0.00 | 0.38 | 0.01 | 85 | 1012.6 |
| 20260906141723 | 84 | 284 | 5.0 | 7.0 | 0.00 | 0.38 | 0.01 | 86 | 1012.7 |
| 20260906141227 | 84 | 285 | 5.0 | 7.0 | 0.00 | 0.38 | 0.01 | 86 | 1012.7 |
| 20260906140718 | 84 | 274 | 5.0 | 9.0 | 0.00 | 0.38 | 0.01 | 87 | 1012.7 |
| 20260906140222 | 84 | 276 | 6.0 | 9.0 | 0.00 | 0.38 | 0.01 | 87 | 1012.8 |
| 20260906135717 | 83 | 249 | 6.0 | 8.0 | 0.00 | 0.39 | 0.01 | 88 | 1012.7 |
| 20260906135220 | 83 | 278 | 6.0 | 8.0 | 0.00 | 0.39 | 0.01 | 88 | 1012.8 |
| 20260906134727 | 83 | 275 | 4.0 | 8.0 | 0.00 | 0.39 | 0.01 | 88 | 1012.8 |
| 20260906134230 | 83 | 286 | 5.0 | 8.0 | 0.00 | 0.39 | 0.01 | 88 | 1012.8 |
| 20260906133713 | 83 | 252 | 5.0 | 7.0 | 0.00 | 0.39 | 0.01 | 89 | 1012.8 |
| 20260906133217 | 83 | 275 | 5.0 | 9.0 | 0.00 | 0.39 | 0.01 | 89 | 1012.9 |
| 20260906132721 | 82 | 281 | 5.0 | 9.0 | 0.00 | 0.39 | 0.01 | 89 | 1012.9 |
| 20260906132226 | 82 | 287 | 6.0 | 9.0 | 0.00 | 0.39 | 0.01 | 89 | 1012.9 |
| 20260906131730 | 82 | 285 | 6.0 | 7.0 | 0.00 | 0.39 | 0.01 | 90 | 1012.9 |
| 20260906131215 | 82 | 273 | 6.0 | 7.0 | 0.00 | 0.39 | 0.01 | 90 | 1012.8 |
| 20260906130720 | 82 | 277 | 5.0 | 9.0 | 0.00 | 0.39 | 0.01 | 90 | 1012.9 |
| 20260906130224 | 82 | 276 | 5.0 | 10.0 | 0.00 | 0.39 | 0.01 | 90 | 1012.8 |
| 20260906125749 | 82 | 285 | 6.0 | 10.0 | 0.00 | 0.39 | 0.01 | 90 | 1012.9 |
| 20260906125217 | 82 | 274 | 5.0 | 7.0 | 0.00 | 0.39 | 0.01 | 90 | 1012.8 |
| 20260906124721 | 81 | 279 | 4.0 | 6.0 | 0.00 | 0.39 | 0.01 | 91 | 1012.8 |
| 20260906124224 | 81 | 261 | 5.0 | 7.0 | 0.00 | 0.39 | 0.01 | 91 | 1012.9 |
| 20260906123728 | 81 | 274 | 4.0 | 7.0 | 0.00 | 0.39 | 0.01 | 91 | 1012.9 |
| 20260906123213 | 81 | 260 | 3.0 | 5.0 | 0.00 | 0.39 | 0.01 | 92 | 1012.9 |
| 20260906122718 | 80 | 196 | 3.0 | 5.0 | 0.00 | 0.39 | 0.01 | 92 | 1012.9 |
| 20260906122223 | 80 | 261 | 3.0 | 5.0 | 0.00 | 0.39 | 0.01 | 93 | 1012.9 |
| 20260906121727 | 80 | 274 | 3.0 | 5.0 | 0.00 | 0.39 | 0.01 | 93 | 1012.9 |
| 20260906121212 | 80 | 254 | 1.0 | 3.0 | 0.00 | 0.39 | 0.01 | 93 | 1012.9 |
| 20260906120726 | 79 | 211 | 0.0 | 3.0 | 0.00 | 0.39 | 0.01 | 93 | 1012.9 |
| 20260906120229 | 79 | 235 | 1.0 | 3.0 | 0.00 | 0.39 | 0.01 | 94 | 1012.9 |
| 20260906115715 | 79 | 206 | 2.0 | 3.0 | 0.00 | 0.39 | 0.01 | 94 | 1012.8 |
| 20260906115219 | 78 | 186 | 2.0 | 3.0 | 0.00 | 0.39 | 0.01 | 94 | 1012.7 |
| 20260906114724 | 78 | 220 | 1.0 | 4.0 | 0.00 | 0.39 | 0.01 | 94 | 1012.8 |
| 20260906114229 | 78 | 227 | 1.0 | 4.0 | 0.00 | 0.39 | 0.01 | 94 | 1012.7 |
| 20260906113713 | 77 | 201 | 1.0 | 3.0 | 0.00 | 0.39 | 0.01 | 94 | 1012.5 |
| 20260906113218 | 77 | 210 | 1.0 | 3.0 | 0.00 | 0.39 | 0.01 | 95 | 1012.4 |
| 20260906112720 | 77 | 241 | 1.0 | 2.0 | 0.00 | 0.39 | 0.01 | 95 | 1012.3 |
| 20260906112224 | 77 | 195 | 1.0 | 2.0 | 0.01 | 0.39 | 0.01 | 95 | 1012.4 |
| 20260906111729 | 77 | 210 | 1.0 | 3.0 | 0.01 | 0.39 | 0.01 | 95 | 1012.3 |
| 20260906111212 | 77 | 236 | 1.0 | 3.0 | 0.01 | 0.39 | 0.01 | 95 | 1012.3 |
| 20260906110717 | 77 | 266 | 1.0 | 2.0 | 0.01 | 0.39 | 0.01 | 95 | 1012.3 |
| 20260906110221 | 77 | 246 | 1.0 | 3.0 | 0.01 | 0.39 | 0.01 | 95 | 1012.2 |
| 20260906105726 | 77 | 208 | 0.0 | 1.0 | 0.01 | 0.39 | 0.01 | 95 | 1012.1 |
| 20260906105231 | 77 | 237 | 0.0 | 1.0 | 0.01 | 0.39 | 0.01 | 95 | 1012.1 |
| 20260906104716 | 77 | 208 | 0.0 | 0.0 | 0.01 | 0.39 | 0.01 | 95 | 1012.1 |
| 20260906104220 | 77 | 234 | 0.0 | 0.0 | 0.01 | 0.39 | 0.01 | 95 | 1012.1 |
| 20260906103744 | 77 | 207 | 0.0 | 0.0 | 0.01 | 0.39 | 0.01 | 95 | 1012.0 |
| 20260906103226 | 77 | 229 | 0.0 | 0.0 | 0.01 | 0.39 | 0.01 | 95 | 1011.9 |
| 20260906102750 | 77 | 235 | 0.0 | 0.0 | 0.01 | 0.39 | 0.01 | 95 | 1011.9 |
| 20260906102233 | 77 | 212 | 0.0 | 0.0 | 0.00 | 0.38 | 0.00 | 95 | 1011.8 |
| 20260906101717 | 77 | 237 | 0.0 | 0.0 | 0.00 | 0.38 | 0.00 | 95 | 1011.8 |
| 20260906101220 | 77 | 246 | 0.0 | 0.0 | 0.00 | 0.38 | 0.00 | 95 | 1011.7 |
| 20260906100715 | 77 | 213 | 0.0 | 0.0 | 0.00 | 0.38 | 0.00 | 95 | 1011.8 |
| 20260906100218 | 77 | 214 | 0.0 | 0.0 | 0.00 | 0.38 | 0.00 | 95 | 1011.7 |
| 20260906095724 | 77 | 220 | 0.0 | 0.0 | 0.00 | 0.38 | 0.00 | 95 | 1011.7 |
| 20260906095212 | 77 | 210 | 0.0 | 0.0 | 0.00 | 0.38 | 0.00 | 95 | 1011.7 |
| 20260906094716 | 77 | 201 | 0.0 | 0.0 | 0.00 | 0.38 | 0.00 | 95 | 1011.6 |
| 20260906094219 | 77 | 197 | 0.0 | 0.0 | 0.00 | 0.38 | 0.00 | 95 | 1011.4 |
| 20260906093723 | 77 | 197 | 0.0 | 0.0 | 0.00 | 0.38 | 0.00 | 95 | 1011.4 |
| 20260906092719 | 78 | 197 | 0.0 | 0.0 | 0.00 | 0.38 | 0.00 | 95 | 1011.4 |
| 20260906092223 | 78 | 198 | 0.0 | 0.0 | 0.00 | 0.38 | 0.00 | 95 | 1011.6 |
| 20260906091727 | 77 | 189 | 0.0 | 0.0 | 0.00 | 0.38 | 0.00 | 95 | 1011.6 |
| 20260906091230 | 77 | 179 | 0.0 | 0.0 | 0.00 | 0.38 | 0.00 | 95 | 1011.6 |
| 20260906090712 | 77 | 179 | 0.0 | 0.0 | 0.00 | 0.38 | 0.00 | 95 | 1011.4 |
| 20260906090217 | 77 | 180 | 0.0 | 0.0 | 0.00 | 0.38 | 0.00 | 95 | 1011.4 |
| 20260906085719 | 77 | 179 | 0.0 | 0.0 | 0.00 | 0.38 | 0.00 | 95 | 1011.3 |
| 20260906085223 | 77 | 179 | 0.0 | 0.0 | 0.00 | 0.38 | 0.00 | 95 | 1011.2 |
| 20260906084747 | 77 | 179 | 0.0 | 0.0 | 0.00 | 0.38 | 0.00 | 95 | 1011.2 |
| 20260906084214 | 77 | 175 | 0.0 | 0.0 | 0.00 | 0.38 | 0.00 | 95 | 1011.3 |
| 20260906083716 | 77 | 175 | 0.0 | 0.0 | 0.00 | 0.38 | 0.00 | 95 | 1011.3 |
| 20260906083219 | 77 | 175 | 0.0 | 0.0 | 0.00 | 0.38 | 0.00 | 95 | 1011.3 |
| 20260906082724 | 77 | 175 | 0.0 | 0.0 | 0.00 | 0.38 | 0.00 | 95 | 1011.3 |
| 20260906082229 | 77 | 175 | 0.0 | 0.0 | 0.00 | 0.38 | 0.00 | 95 | 1011.3 |
| 20260906081733 | 77 | 175 | 0.0 | 0.0 | 0.00 | 0.38 | 0.00 | 95 | 1011.2 |
| 20260906081237 | 77 | 175 | 0.0 | 0.0 | 0.00 | 0.38 | 0.00 | 95 | 1011.3 |
| 20260906080727 | 77 | 175 | 0.0 | 0.0 | 0.00 | 0.38 | 0.00 | 95 | 1011.2 |
| 20260906080230 | 77 | 175 | 0.0 | 0.0 | 0.00 | 0.38 | 0.00 | 95 | 1011.3 |
| 20260906075733 | 77 | 175 | 0.0 | 0.0 | 0.00 | 0.38 | 0.00 | 95 | 1011.2 |
| 20260906075236 | 77 | 175 | 0.0 | 0.0 | 0.00 | 0.38 | 0.00 | 95 | 1011.3 |
| 20260906074716 | 77 | 175 | 0.0 | 0.0 | 0.00 | 0.38 | 0.00 | 95 | 1011.1 |
| 20260906074220 | 77 | 175 | 0.0 | 0.0 | 0.00 | 0.38 | 0.00 | 95 | 1011.1 |
| 20260906073724 | 77 | 175 | 0.0 | 0.0 | 0.00 | 0.38 | 0.00 | 94 | 1010.9 |
| 20260906073229 | 77 | 175 | 0.0 | 0.0 | 0.00 | 0.38 | 0.00 | 94 | 1010.9 |
| 20260906072750 | 77 | 175 | 0.0 | 0.0 | 0.00 | 0.38 | 0.00 | 95 | 1011.0 |
| 20260906072233 | 77 | 175 | 0.0 | 0.0 | 0.00 | 0.38 | 0.00 | 94 | 1011.0 |
| 20260906071737 | 77 | 175 | 0.0 | 0.0 | 0.00 | 0.38 | 0.00 | 94 | 1011.1 |
| 20260906071224 | 77 | 175 | 0.0 | 0.0 | 0.00 | 0.38 | 0.00 | 94 | 1011.0 |
| 20260906070729 | 77 | 175 | 0.0 | 0.0 | 0.00 | 0.38 | 0.00 | 94 | 1011.2 |
| 20260906070211 | 77 | 175 | 0.0 | 0.0 | 0.00 | 0.38 | 0.00 | 94 | 1011.2 |
| 20260906065716 | 77 | 175 | 0.0 | 0.0 | 0.00 | 0.38 | 0.00 | 94 | 1011.3 |
| 20260906065218 | 77 | 175 | 0.0 | 0.0 | 0.00 | 0.38 | 0.00 | 94 | 1011.3 |
| 20260906064742 | 77 | 175 | 0.0 | 0.0 | 0.00 | 0.38 | 0.00 | 94 | 1011.3 |
| 20260906064223 | 77 | 175 | 0.0 | 0.0 | 0.00 | 0.38 | 0.00 | 94 | 1011.3 |
| 20260906063727 | 77 | 175 | 0.0 | 0.0 | 0.00 | 0.38 | 0.00 | 95 | 1011.4 |
| 20260906063211 | 77 | 172 | 0.0 | 0.0 | 0.00 | 0.38 | 0.00 | 94 | 1011.4 |
| 20260906062716 | 77 | 166 | 0.0 | 0.0 | 0.00 | 0.38 | 0.00 | 94 | 1011.3 |
| 20260906062218 | 77 | 165 | 0.0 | 0.0 | 0.00 | 0.38 | 0.00 | 94 | 1011.4 |
| 20260906061721 | 77 | 165 | 0.0 | 0.0 | 0.00 | 0.38 | 0.00 | 95 | 1011.5 |
| 20260906061229 | 77 | 166 | 0.0 | 0.0 | 0.00 | 0.38 | 0.00 | 94 | 1011.6 |
| 20260906060725 | 77 | 165 | 0.0 | 0.0 | 0.00 | 0.38 | 0.00 | 94 | 1011.7 |
| 20260906060231 | 77 | 165 | 0.0 | 0.0 | 0.00 | 0.38 | 0.00 | 95 | 1011.8 |
| 20260906055714 | 77 | 165 | 0.0 | 0.0 | 0.00 | 0.38 | 0.00 | 95 | 1011.8 |
| 20260906055217 | 77 | 166 | 0.0 | 0.0 | 0.00 | 0.38 | 0.00 | 95 | 1011.8 |
| 20260906054721 | 77 | 165 | 0.0 | 0.0 | 0.00 | 0.38 | 0.00 | 95 | 1012.0 |
| 20260906054223 | 77 | 165 | 0.0 | 0.0 | 0.00 | 0.38 | 0.00 | 95 | 1012.1 |
| 20260906053728 | 77 | 165 | 0.0 | 0.0 | 0.00 | 0.38 | 0.00 | 95 | 1012.1 |
| 20260906053234 | 77 | 165 | 0.0 | 0.0 | 0.00 | 0.38 | 0.00 | 95 | 1012.1 |
| 20260906052737 | 77 | 165 | 0.0 | 0.0 | 0.00 | 0.38 | 0.00 | 95 | 1012.3 |
| 20260906052220 | 77 | 165 | 0.0 | 0.0 | 0.00 | 0.38 | 0.00 | 95 | 1012.3 |
| 20260906051724 | 77 | 165 | 0.0 | 0.0 | 0.00 | 0.38 | 0.00 | 94 | 1012.3 |
| 20260906051247 | 77 | 165 | 0.0 | 0.0 | 0.00 | 0.38 | 0.00 | 94 | 1012.5 |
| 20260906050714 | 77 | 165 | 0.0 | 0.0 | 0.00 | 0.38 | 0.00 | 95 | 1012.6 |
| 20260906050217 | 77 | 165 | 0.0 | 0.0 | 0.00 | 0.38 | 0.00 | 95 | 1012.6 |
| 20260906045720 | 77 | 165 | 0.0 | 0.0 | 0.00 | 0.39 | 0.00 | 95 | 1012.7 |
| 20260906045225 | 77 | 165 | 0.0 | 0.0 | 0.00 | 0.39 | 0.00 | 95 | 1012.8 |
| 20260906044727 | 77 | 165 | 0.0 | 0.0 | 0.00 | 0.39 | 0.00 | 95 | 1012.9 |
| 20260906044228 | 77 | 165 | 0.0 | 0.0 | 0.00 | 0.39 | 0.00 | 94 | 1012.8 |
| 20260906043730 | 77 | 165 | 0.0 | 0.0 | 0.00 | 0.39 | 0.00 | 94 | 1012.9 |
| 20260906043214 | 77 | 165 | 0.0 | 0.0 | 0.00 | 0.39 | 0.00 | 95 | 1012.9 |
| 20260906042717 | 77 | 165 | 0.0 | 0.0 | 0.00 | 0.39 | 0.00 | 94 | 1012.9 |
| 20260906042242 | 77 | 165 | 0.0 | 0.0 | 0.00 | 0.39 | 0.00 | 95 | 1012.9 |
| 20260906041744 | 77 | 165 | 0.0 | 0.0 | 0.00 | 0.39 | 0.00 | 94 | 1013.0 |
| 20260906041228 | 77 | 165 | 0.0 | 0.0 | 0.00 | 0.39 | 0.00 | 94 | 1013.1 |
| 20260906040719 | 77 | 165 | 0.0 | 0.0 | 0.00 | 0.39 | 0.00 | 94 | 1013.1 |
| 20260906040230 | 77 | 165 | 0.0 | 0.0 | 0.00 | 0.39 | 0.00 | 94 | 1013.2 |
| 20260906035734 | 77 | 165 | 0.0 | 0.0 | 0.00 | 0.41 | 0.39 | 94 | 1013.1 |
| 20260906035221 | 77 | 165 | 0.0 | 0.0 | 0.00 | 0.41 | 0.39 | 94 | 1013.1 |
| 20260906034723 | 77 | 165 | 0.0 | 0.0 | 0.00 | 0.41 | 0.39 | 94 | 1013.0 |
| 20260906034225 | 77 | 165 | 0.0 | 0.0 | 0.00 | 0.41 | 0.39 | 94 | 1013.0 |
| 20260906033728 | 77 | 165 | 0.0 | 0.0 | 0.00 | 0.41 | 0.39 | 94 | 1013.0 |
| 20260906033230 | 77 | 165 | 0.0 | 0.0 | 0.00 | 0.41 | 0.39 | 94 | 1012.9 |
| 20260906032712 | 77 | 165 | 0.0 | 0.0 | 0.00 | 0.41 | 0.39 | 94 | 1012.9 |
| 20260906032217 | 77 | 165 | 0.0 | 0.0 | 0.00 | 0.41 | 0.39 | 94 | 1012.9 |
| 20260906031721 | 77 | 165 | 0.0 | 0.0 | 0.00 | 0.41 | 0.39 | 94 | 1012.9 |
| 20260906031222 | 77 | 166 | 0.0 | 0.0 | 0.00 | 0.41 | 0.39 | 94 | 1013.0 |
| 20260906030726 | 77 | 161 | 0.0 | 0.0 | 0.00 | 0.41 | 0.39 | 94 | 1012.9 |
| 20260906030229 | 78 | 167 | 0.0 | 0.0 | 0.00 | 0.41 | 0.39 | 94 | 1012.9 |
| 20260906025718 | 78 | 167 | 0.0 | 0.0 | 0.00 | 0.42 | 0.39 | 94 | 1013.0 |
| 20260906025221 | 78 | 167 | 0.0 | 0.0 | 0.00 | 0.42 | 0.39 | 94 | 1013.0 |
| 20260906024725 | 78 | 164 | 0.0 | 0.0 | 0.00 | 0.42 | 0.39 | 94 | 1012.9 |
| 20260906024227 | 78 | 164 | 0.0 | 0.0 | 0.00 | 0.42 | 0.39 | 94 | 1012.8 |
| 20260906023751 | 78 | 177 | 0.0 | 0.0 | 0.00 | 0.42 | 0.39 | 94 | 1012.7 |
| 20260906023214 | 78 | 160 | 0.0 | 0.0 | 0.00 | 0.42 | 0.39 | 94 | 1012.7 |
| 20260906022717 | 78 | 166 | 0.0 | 0.0 | 0.00 | 0.42 | 0.39 | 94 | 1012.7 |
| 20260906022218 | 78 | 165 | 0.0 | 0.0 | 0.00 | 0.42 | 0.39 | 94 | 1012.8 |
| 20260906021721 | 78 | 170 | 0.0 | 0.0 | 0.00 | 0.42 | 0.39 | 94 | 1012.8 |
| 20260906021224 | 78 | 162 | 0.0 | 0.0 | 0.00 | 0.42 | 0.39 | 94 | 1012.9 |
| 20260906020723 | 78 | 167 | 0.0 | 0.0 | 0.00 | 0.42 | 0.39 | 94 | 1012.8 |
| 20260906020226 | 78 | 167 | 0.0 | 0.0 | 0.00 | 0.42 | 0.39 | 94 | 1012.8 |
| 20260906015727 | 78 | 170 | 0.0 | 0.0 | 0.00 | 0.43 | 0.39 | 94 | 1012.7 |
| 20260906015241 | 78 | 175 | 0.0 | 0.0 | 0.00 | 0.43 | 0.39 | 94 | 1012.5 |
| 20260906014722 | 78 | 175 | 0.0 | 0.0 | 0.00 | 0.43 | 0.39 | 94 | 1012.4 |
| 20260906014245 | 78 | 175 | 0.0 | 0.0 | 0.00 | 0.43 | 0.39 | 94 | 1012.3 |
| 20260906013727 | 78 | 174 | 0.0 | 0.0 | 0.00 | 0.43 | 0.39 | 94 | 1012.3 |
| 20260906013231 | 78 | 175 | 0.0 | 0.0 | 0.00 | 0.43 | 0.39 | 94 | 1012.3 |
| 20260906012714 | 78 | 175 | 0.0 | 0.0 | 0.00 | 0.43 | 0.39 | 94 | 1012.2 |
| 20260906012236 | 78 | 175 | 0.0 | 0.0 | 0.00 | 0.43 | 0.39 | 94 | 1012.1 |
| 20260906011739 | 78 | 186 | 0.0 | 0.0 | 0.00 | 0.43 | 0.39 | 94 | 1012.1 |
| 20260906011221 | 78 | 176 | 0.0 | 0.0 | 0.00 | 0.43 | 0.39 | 94 | 1012.0 |
| 20260906010723 | 78 | 176 | 0.0 | 0.0 | 0.00 | 0.43 | 0.39 | 94 | 1011.9 |
| 20260906010227 | 78 | 176 | 0.0 | 0.0 | 0.00 | 0.43 | 0.39 | 94 | 1012.0 |
| 20260906005730 | 78 | 185 | 0.0 | 0.0 | 0.00 | 0.51 | 0.39 | 94 | 1012.0 |
| 20260906005214 | 78 | 172 | 0.0 | 0.0 | 0.00 | 0.51 | 0.39 | 94 | 1011.9 |
| 20260906004716 | 78 | 169 | 0.0 | 0.0 | 0.00 | 0.51 | 0.39 | 94 | 1011.8 |
| 20260906004218 | 78 | 169 | 0.0 | 0.0 | 0.00 | 0.51 | 0.39 | 94 | 1011.8 |
| 20260906003718 | 78 | 168 | 0.0 | 0.0 | 0.00 | 0.51 | 0.39 | 94 | 1011.8 |
| 20260906003220 | 78 | 160 | 0.0 | 0.0 | 0.00 | 0.51 | 0.39 | 94 | 1011.8 |
| 20260906002728 | 78 | 188 | 0.0 | 0.0 | 0.00 | 0.51 | 0.39 | 94 | 1011.8 |
| 20260906002212 | 78 | 194 | 0.0 | 0.0 | 0.00 | 0.51 | 0.39 | 94 | 1011.8 |
| 20260906001735 | 78 | 194 | 0.0 | 0.0 | 0.00 | 0.51 | 0.39 | 94 | 1011.8 |
| 20260906001218 | 78 | 206 | 0.0 | 0.0 | 0.00 | 0.51 | 0.39 | 93 | 1011.7 |
| 20260906000727 | 79 | 206 | 0.0 | 1.0 | 0.00 | 0.51 | 0.39 | 93 | 1011.7 |
| 20260906000249 | 79 | 209 | 0.0 | 1.0 | 0.00 | 0.51 | 0.39 | 93 | 1011.8 |
| 20260905235731 | 79 | 203 | 0.0 | 1.0 | 0.00 | 0.52 | 0.39 | 93 | 1011.8 |
| 20260905235214 | 79 | 189 | 0.0 | 3.0 | 0.00 | 0.52 | 0.39 | 93 | 1011.8 |
| 20260905234718 | 79 | 189 | 1.0 | 3.0 | 0.00 | 0.52 | 0.39 | 92 | 1011.9 |
| 20260905234222 | 79 | 196 | 0.0 | 3.0 | 0.00 | 0.52 | 0.39 | 92 | 1011.9 |
| 20260905233723 | 80 | 197 | 0.0 | 1.0 | 0.00 | 0.52 | 0.39 | 92 | 1012.0 |
| 20260905233226 | 80 | 167 | 0.0 | 0.0 | 0.00 | 0.52 | 0.39 | 93 | 1012.1 |
| 20260905232746 | 79 | 167 | 0.0 | 0.0 | 0.00 | 0.52 | 0.39 | 93 | 1012.2 |
| 20260905232229 | 79 | 168 | 0.0 | 2.0 | 0.00 | 0.52 | 0.39 | 93 | 1012.2 |
| 20260905231717 | 79 | 111 | 1.0 | 3.0 | 0.00 | 0.52 | 0.39 | 92 | 1012.0 |
| 20260905231228 | 79 | 78 | 1.0 | 3.0 | 0.00 | 0.52 | 0.39 | 92 | 1012.1 |
| 20260905230729 | 79 | 93 | 2.0 | 3.0 | 0.00 | 0.52 | 0.39 | 92 | 1012.1 |
| 20260905230252 | 79 | 195 | 0.0 | 0.0 | 0.00 | 0.52 | 0.39 | 93 | 1012.0 |
| 20260905225714 | 79 | 195 | 0.0 | 2.0 | 0.00 | 1.02 | 0.39 | 92 | 1011.9 |
| 20260905225217 | 79 | 195 | 1.0 | 2.0 | 0.00 | 1.02 | 0.39 | 92 | 1011.9 |
| 20260905224720 | 79 | 195 | 1.0 | 2.0 | 0.00 | 1.02 | 0.39 | 92 | 1012.0 |
| 20260905224224 | 80 | 145 | 1.0 | 3.0 | 0.00 | 1.02 | 0.39 | 92 | 1011.9 |
| 20260905223728 | 80 | 115 | 2.0 | 3.0 | 0.00 | 1.02 | 0.39 | 92 | 1011.9 |
| 20260905223212 | 79 | 118 | 1.0 | 2.0 | 0.00 | 1.02 | 0.39 | 92 | 1011.9 |
| 20260905204714 | 80 | 77 | 3.0 | 3.0 | 0.00 | 1.56 | 0.39 | 92 | 1013.0 |
| 20260905204218 | 80 | 111 | 1.0 | 3.0 | 0.00 | 1.56 | 0.39 | 92 | 1013.0 |
| 20260905203721 | 80 | 228 | 0.0 | 4.0 | 0.00 | 1.56 | 0.39 | 92 | 1012.8 |